When you browse on this site, cookies collect data to enhance your experience and personalize the content and advertising you see.
Visit our Privacy Policy to learn more. By continuing to use the site, you agree to this use of cookies and data.
  • In Österreich
  • Länderverzeichnis
  • Für 7 Tage
  • Wassertemperatur
  • Satellitenkarten
  • Wetterkarte
  • News
  • Widgets
  • user-avatar
    Anmelden

    Stündliche Wetter Sydney

    Heute, 20 Juli, Samstag

    Zeit Temperatur Niederschläge Wind Luftdruck Luftfeuchtigkeit
    00:00 +9°C° 0 mm 2 m/S 766 mmHg 75%
    01:00 +9°C° 0 mm 2 m/S 766 mmHg 77%
    02:00 +8°C° 0 mm 2 m/S 766 mmHg 78%
    03:00 +8°C° 0 mm 2 m/S 766 mmHg 80%
    04:00 +7°C° 0 mm 2 m/S 766 mmHg 81%
    05:00 +7°C° 0 mm 2 m/S 766 mmHg 81%
    06:00 +7°C° 0 mm 2 m/S 766 mmHg 82%
    07:00 +7°C° 0 mm 2 m/S 766 mmHg 82%
    08:00 +9°C° 0 mm 2 m/S 766 mmHg 73%
    09:00 +12°C° 0 mm 2 m/S 766 mmHg 63%
    10:00 +14°C° 0 mm 2 m/S 766 mmHg 50%
    11:00 +16°C° 0 mm 2 m/S 765 mmHg 44%
    12:00 +18°C° 0 mm 3 m/S 765 mmHg 39%
    13:00 +20°C° 0 mm 3 m/S 764 mmHg 33%
    14:00 +20°C° 0 mm 4 m/S 764 mmHg 35%
    15:00 +20°C° 0 mm 4 m/S 763 mmHg 36%
    16:00 +19°C° 0 mm 3 m/S 763 mmHg 39%
    17:00 +17°C° 0 mm 3 m/S 763 mmHg 46%
    18:00 +15°C° 0 mm 4 m/S 764 mmHg 53%
    19:00 +13°C° 0 mm 5 m/S 764 mmHg 60%
    20:00 +12°C° 0 mm 5 m/S 764 mmHg 59%
    21:00 +11°C° 0 mm 4 m/S 764 mmHg 58%
    22:00 +11°C° 0 mm 4 m/S 764 mmHg 58%
    23:00 +10°C° 0 mm 4 m/S 764 mmHg 59%

    Morgen, 21 Juli, Sonntag

    Zeit Temperatur Niederschläge Wind Luftdruck Luftfeuchtigkeit
    00:00 +10°C° 0 mm 4 m/S 763 mmHg 61%
    01:00 +8°C° 0 mm 4 m/S 763 mmHg 63%
    02:00 +8°C° 0 mm 4 m/S 763 mmHg 65%
    03:00 +8°C° 0 mm 4 m/S 763 mmHg 66%
    04:00 +7°C° 0 mm 4 m/S 762 mmHg 68%
    05:00 +7°C° 0 mm 4 m/S 762 mmHg 68%
    06:00 +8°C° 0 mm 3 m/S 762 mmHg 69%
    07:00 +7°C° 0 mm 3 m/S 762 mmHg 70%
    08:00 +10°C° 0 mm 3 m/S 762 mmHg 61%
    09:00 +12°C° 0 mm 3 m/S 762 mmHg 51%
    10:00 +16°C° 0 mm 3 m/S 762 mmHg 42%
    11:00 +18°C° 0 mm 3 m/S 761 mmHg 37%
    12:00 +20°C° 0 mm 3 m/S 761 mmHg 33%
    13:00 +23°C° 0 mm 2 m/S 760 mmHg 28%
    14:00 +23°C° 0 mm 2 m/S 760 mmHg 28%
    15:00 +23°C° 0 mm 2 m/S 760 mmHg 28%
    16:00 +23°C° 0 mm 2 m/S 760 mmHg 28%
    17:00 +20°C° 0 mm 3 m/S 760 mmHg 33%
    18:00 +18°C° 0 mm 4 m/S 760 mmHg 37%
    19:00 +15°C° 0 mm 5 m/S 761 mmHg 42%
    20:00 +14°C° 0 mm 5 m/S 761 mmHg 46%
    21:00 +13°C° 0 mm 4 m/S 761 mmHg 49%
    22:00 +12°C° 0 mm 4 m/S 762 mmHg 53%
    23:00 +12°C° 0 mm 4 m/S 762 mmHg 54%

    übermorgen, 22 Juli, Montag

    Zeit Temperatur Niederschläge Wind Luftdruck Luftfeuchtigkeit
    00:00 +12°C° 0 mm 3 m/S 761 mmHg 56%
    01:00 +11°C° 0 mm 3 m/S 761 mmHg 58%
    02:00 +11°C° 0 mm 3 m/S 761 mmHg 59%
    03:00 +11°C° 0 mm 3 m/S 761 mmHg 60%
    04:00 +11°C° 0 mm 3 m/S 761 mmHg 60%
    05:00 +12°C° 0 mm 2 m/S 762 mmHg 61%
    06:00 +12°C° 0 mm 2 m/S 762 mmHg 61%
    07:00 +12°C° 0 mm 2 m/S 762 mmHg 61%
    08:00 +14°C° 0 mm 2 m/S 762 mmHg 56%
    09:00 +15°C° 0 mm 2 m/S 762 mmHg 50%
    10:00 +17°C° 0 mm 3 m/S 762 mmHg 44%
    11:00 +19°C° 0 mm 2 m/S 761 mmHg 40%
    12:00 +21°C° 0 mm 2 m/S 761 mmHg 35%
    13:00 +23°C° 0 mm 2 m/S 760 mmHg 31%
    14:00 +23°C° 0 mm 2 m/S 760 mmHg 32%
    15:00 +22°C° 0 mm 3 m/S 760 mmHg 33%
    16:00 +22°C° 0 mm 3 m/S 760 mmHg 33%
    17:00 +20°C° 0 mm 3 m/S 760 mmHg 39%
    18:00 +18°C° 0 mm 3 m/S 760 mmHg 44%
    19:00 +17°C° 0 mm 3 m/S 760 mmHg 50%
    20:00 +16°C° 0 mm 3 m/S 761 mmHg 52%
    21:00 +14°C° 0 mm 3 m/S 761 mmHg 54%
    22:00 +13°C° 0 mm 3 m/S 761 mmHg 56%
    23:00 +13°C° 0 mm 3 m/S 761 mmHg 59%

    23 Juli, Dienstag

    Zeit Temperatur Niederschläge Wind Luftdruck Luftfeuchtigkeit
    00:00 +12°C° 0 mm 3 m/S 760 mmHg 62%
    01:00 +12°C° 0 mm 3 m/S 760 mmHg 64%
    02:00 +11°C° 0 mm 4 m/S 760 mmHg 67%
    03:00 +10°C° 0 mm 4 m/S 760 mmHg 70%
    04:00 +10°C° 0 mm 4 m/S 760 mmHg 73%
    05:00 +10°C° 0 mm 4 m/S 761 mmHg 73%
    06:00 +9°C° 0 mm 3 m/S 761 mmHg 73%
    07:00 +9°C° 0 mm 3 m/S 761 mmHg 73%
    08:00 +11°C° 0 mm 3 m/S 762 mmHg 62%
    09:00 +14°C° 0 mm 3 m/S 762 mmHg 52%
    10:00 +17°C° 0 mm 3 m/S 762 mmHg 41%
    11:00 +19°C° 0 mm 3 m/S 761 mmHg 36%
    12:00 +20°C° 0 mm 3 m/S 761 mmHg 30%
    13:00 +23°C° 0 mm 2 m/S 760 mmHg 25%
    14:00 +22°C° 0 mm 3 m/S 760 mmHg 26%
    15:00 +22°C° 0 mm 3 m/S 760 mmHg 27%
    16:00 +21°C° 0 mm 3 m/S 760 mmHg 28%
    17:00 +19°C° 0 mm 4 m/S 760 mmHg 33%
    18:00 +16°C° 0 mm 5 m/S 761 mmHg 39%
    19:00 +15°C° 0 mm 5 m/S 761 mmHg 44%
    20:00 +14°C° 0 mm 5 m/S 761 mmHg 46%
    21:00 +13°C° 0 mm 5 m/S 762 mmHg 48%
    22:00 +13°C° 0 mm 5 m/S 762 mmHg 50%
    23:00 +13°C° 0 mm 5 m/S 762 mmHg 52%

    24 Juli, Mittwoch

    Zeit Temperatur Niederschläge Wind Luftdruck Luftfeuchtigkeit
    00:00 +11°C° 0 mm 6 m/S 761 mmHg 54%
    01:00 +11°C° 0 mm 6 m/S 761 mmHg 56%
    02:00 +10°C° 0 mm 5 m/S 761 mmHg 58%
    03:00 +11°C° 0 mm 4 m/S 761 mmHg 60%
    04:00 +11°C° 0 mm 4 m/S 760 mmHg 63%
    05:00 +10°C° 0 mm 3 m/S 761 mmHg 64%
    06:00 +10°C° 0 mm 3 m/S 761 mmHg 65%
    07:00 +9°C° 0 mm 2 m/S 762 mmHg 67%
    08:00 +11°C° 0 mm 3 m/S 762 mmHg 61%
    09:00 +12°C° 0 mm 3 m/S 763 mmHg 55%
    10:00 +14°C° 0 mm 3 m/S 763 mmHg 49%
    11:00 +15°C° 0 mm 4 m/S 763 mmHg 44%
    12:00 +17°C° 0 mm 5 m/S 762 mmHg 39%
    13:00 +19°C° 0 mm 5 m/S 762 mmHg 35%
    14:00 +19°C° 0 mm 5 m/S 762 mmHg 35%
    15:00 +17°C° 0 mm 5 m/S 762 mmHg 34%
    16:00 +17°C° 0 mm 5 m/S 762 mmHg 34%
    17:00 +15°C° 0 mm 6 m/S 763 mmHg 39%
    18:00 +14°C° 0 mm 6 m/S 764 mmHg 45%
    19:00 +11°C° 0 mm 6 m/S 764 mmHg 50%
    20:00 +10°C° 0 mm 6 m/S 765 mmHg 53%
    21:00 +10°C° 0 mm 6 m/S 765 mmHg 55%
    22:00 +9°C° 0 mm 6 m/S 766 mmHg 58%
    23:00 +9°C° 0.1 mm 5 m/S 766 mmHg 57%

    25 Juli, Donnerstag

    Zeit Temperatur Niederschläge Wind Luftdruck Luftfeuchtigkeit
    00:00 +9°C° 0.1 mm 5 m/S 766 mmHg 56%
    01:00 +10°C° 0.1 mm 4 m/S 766 mmHg 55%
    02:00 +8°C° 0 mm 4 m/S 766 mmHg 58%
    03:00 +8°C° 0 mm 4 m/S 766 mmHg 60%
    04:00 +8°C° 0 mm 3 m/S 766 mmHg 62%
    05:00 +7°C° 0 mm 3 m/S 766 mmHg 65%
    06:00 +7°C° 0 mm 3 m/S 766 mmHg 67%
    07:00 +5°C° 0 mm 3 m/S 767 mmHg 69%
    08:00 +8°C° 0 mm 3 m/S 767 mmHg 61%
    09:00 +10°C° 0 mm 3 m/S 767 mmHg 53%
    10:00 +12°C° 0 mm 3 m/S 767 mmHg 45%
    11:00 +14°C° 0 mm 2 m/S 766 mmHg 44%
    12:00 +16°C° 0 mm 2 m/S 765 mmHg 42%
    13:00 +19°C° 0 mm 1 m/S 764 mmHg 40%
    14:00 +18°C° 0 mm 2 m/S 764 mmHg 40%
    15:00 +18°C° 0 mm 2 m/S 764 mmHg 41%
    16:00 +18°C° 0 mm 3 m/S 764 mmHg 41%
    17:00 +16°C° 0 mm 3 m/S 764 mmHg 53%
    18:00 +13°C° 0 mm 4 m/S 764 mmHg 64%
    19:00 +12°C° 0 mm 4 m/S 765 mmHg 75%
    20:00 +11°C° 0 mm 4 m/S 765 mmHg 77%
    21:00 +10°C° 0 mm 3 m/S 765 mmHg 80%
    22:00 +9°C° 0 mm 3 m/S 765 mmHg 82%
    23:00 +9°C° 0 mm 3 m/S 765 mmHg 79%
    Mehr zeigen